Starlink 5738

operational
NORAD ID: 55573 Int'l Des: 2023-020 Owner: SPXS Country: US Constellation: starlink
LEOCIRCULAR

Starlink 5738について

説明を読み込み中...

リアルタイム位置

3D地球を読み込み中...

次回通過

高度履歴

Altitude vs Time

uPlot chart will show altitude changes over time

軌道要素

1 55573U 23020E 25305.50427239 -.00000244 00000-0 -29645-5 0 9992
2 55573 43.0048 341.4433 0001319 258.4344 101.6350 15.02532088149635
Epoch: Nov 1, 2025 • Age: 14 hours

現在のステータス

高度 564.6 km
速度 7.58 km/s
衛星直下点 -24.46°S, 126.86°W
打ち上げ日 Feb 12, 2023
運用期間 2.7 years
タイプ internet

技術仕様

分類 Payload
質量 305.00 kg
乾燥質量 290.00 kg
総質量 305.00 kg
長さ 0.20 m
直径 2.80 m
スパン 9.00 m
形状 Box + pan
製造者 SPXS
バスタイプ Starlink
フェーズステータス In Orbit
所有者/国 SPXS/US

大規模コンステレーション

Loading constellations...